Temperature
8 7 6 7 8 8 9 9 9 10 11 11 10 11 11 12 12 11 11 11 11 11 11 11 11 10 10 10 10 10 10 10 10 10 10 10 11 11 11 11 11 11 11 11
7 6 7 8 9 8 8 8 8 10 11 11 10 10 11 12 11 11 11 11 11 11 11 11 10 10 10 10 10 10 10 10 10 10 10 10 10 10 10 10 10 10 11 11
7 8 9 8 8 8 8 8 8 8 9 10 9 9 10 11 12 11 11 11 11 11 11 10 10 10 9 9 9 9 9 9 10 10 10 10 10 10 10 10 10 10 10 10
7 8 8 8 7 7 7 9 9 8 7 7 8 7 10 11 11 11 11 11 11 11 10 10 10 10 9 9 9 9 9 9 9 10 9 9 9 9 9 9 9 9 10 10
7 8 7 7 7 8 7 8 8 8 7 7 8 7 8 10 10 10 10 10 10 10 10 10 10 9 9 9 8 8 8 8 9 9 9 9 9 9 9 9 9 9 9 9
6 7 7 7 8 8 8 7 7 7 6 6 7 7 8 9 10 10 10 10 9 9 9 9 9 9 9 9 8 8 8 8 8 9 9 9 9 9 9 9 9 9 9 9
6 7 7 7 6 7 7 6 6 6 6 6 8 8 8 9 10 9 9 9 9 9 9 9 9 9 9 8 8 8 8 8 8 8 8 8 8 8 8 8 8 8 8 8
5 6 6 6 6 6 6 6 6 6 6 7 8 7 9 9 9 9 9 9 9 8 8 8 8 8 8 8 8 8 8 8 8 8 8 8 8 8 8 8 8 8 8 8
5 5 6 7 7 6 6 6 6 6 6 6 7 9 9 9 8 8 8 8 8 8 8 8 8 8 8 8 7 7 7 7 8 8 7 7 7 7 7 7 7 8 8 8
4 4 5 6 6 6 6 6 5 5 6 6 8 8 8 7 7 8 7 7 7 7 7 7 7 7 7 7 7 7 7 7 7 7 7 7 7 7 7 7 7 7 7 7
4 3 4 5 4 4 5 5 5 5 6 6 7 7 8 7 7 7 6 7 7 7 7 7 7 7 7 7 7 6 6 6 7 7 6 6 6 6 7 7 7 7 7 7
4 3 3 4 5 5 5 5 5 4 5 5 6 6 8 7 7 7 7 6 6 6 6 6 6 6 6 6 6 6 6 6 6 6 6 6 6 6 6 6 6 6 6 6
3 3 3 4 4 4 4 4 4 4 4 4 5 6 7 7 7 7 6 6 6 6 6 6 6 5 5 5 5 5 5 5 5 6 6 6 6 6 6 6 6 6 6 6
3 2 3 4 4 3 3 3 3 3 3 4 4 5 6 6 6 6 6 6 5 5 5 5 5 5 5 5 5 5 5 5 5 5 5 5 5 5 5 5 5 5 5 5
2 2 2 3 4 3 3 3 3 2 3 3 4 5 5 6 5 5 6 5 5 4 4 4 4 4 4 4 4 4 4 4 4 5 5 5 5 5 5 5 5 5 5 5
1 1 2 2 3 3 3 3 3 3 3 3 3 4 5 5 5 5 5 4 4 4 4 4 3 3 4 4 4 4 4 4 4 4 4 4 4 4 4 4 5 5 5 4
0 0 1 2 3 3 3 2 2 2 2 3 3 3 4 4 4 4 4 4 3 3 4 3 3 3 3 3 4 3 3 3 3 3 4 4 4 4 4 4 4 4 4 4
-1 -0 1 1 2 2 3 3 3 2 2 2 2 2 3 3 3 3 3 3 3 3 3 3 3 3 3 3 3 3 3 3 3 3 3 3 3 3 3 3 3 3 3 3
-1 -0 1 1 2 3 3 2 2 1 1 1 1 2 2 2 3 3 3 2 2 2 2 2 2 2 3 3 3 3 3 3 3 3 3 3 3 3 3 3 3 3 3 3
-1 -1 -0 1 2 2 3 1 1 1 1 1 1 1 1 1 1 1 2 2 2 2 2 2 2 2 2 2 2 2 2 2 2 2 2 2 2 2 2 2 2 2 2 2
-2 -1 -1 0 1 1 1 0 1 1 1 1 1 1 0 -0 0 1 1 1 1 1 1 1 1 2 2 2 2 2 2 2 2 2 2 2 2 2 2 2 2 2 1 1
-1 -1 -1 -0 0 1 -0 -0 -0 0 1 1 0 0 -0 -0 0 0 0 1 1 1 1 1 1 1 1 1 1 1 1 1 1 1 1 1 1 1 1 1 1 1 1 1
-1 -1 -1 -0 0 0 0 0 1 1 0 0 -0 -0 -0 -0 -0 -1 -1 -0 -0 -0 -0 -0 -0 -0 -0 0 0 0 0 0 1 1 1 1 1 1 1 1 0 0 0 0
-1 -1 -1 -1 -1 0 1 1 0 0 -0 -1 -1 -1 -1 -1 -1 -1 -1 -1 -1 -1 -1 -1 -1 -1 -1 -1 -0 -1 -1 -0 0 0 0 0 0 0 0 0 -0 -0 -0 -0
-0 -2 -2 -2 -1 -0 0 -0 -0 -0 -1 -1 -1 -1 -1 -1 -1 -1 -1 -2 -2 -2 -2 -1 -1 -1 -1 -1 -1 -1 -1 -1 -1 -0 -0 -0 -0 -0 -1 -1 -1 -1 -1 -1
-1 -2 -2 -1 -1 -1 -1 -1 -1 -1 -1 -1 -1 -1 -1 -2 -2 -2 -2 -2 -2 -2 -2 -2 -2 -2 -2 -2 -2 -1 -1 -1 -1 -1 -1 -1 -1 -1 -1 -1 -1 -1 -1 -1
Wind_Speed
3 3 6 8 9 9 8 9 11 10 6 7 11 13 10 9 8 9 9 9 10 10 8 6 6 6 5 5 6 6 6 5 4 4 4 4 4 4 4 4 6 7 7 7
4 8 10 9 9 10 11 12 12 10 6 7 10 14 12 10 10 9 10 10 10 8 7 7 6 6 6 6 6 6 6 6 4 5 5 4 3 3 3 4 5 6 7 7
8 5 6 8 8 10 12 11 10 9 9 8 8 11 11 9 9 9 9 9 9 9 9 8 7 7 7 6 7 6 6 6 5 5 4 3 3 3 2 3 3 4 6 7
6 7 6 7 9 9 10 9 9 9 7 6 5 7 8 7 8 8 7 6 7 6 7 7 8 7 7 6 6 6 6 6 6 6 6 6 5 4 4 4 4 4 5 5
4 3 5 8 9 8 6 6 8 8 7 7 6 6 7 6 8 7 5 4 4 5 5 6 7 7 6 6 6 6 6 6 6 6 7 7 5 3 3 4 5 4 3 4
7 5 4 6 6 6 5 4 5 5 4 7 8 7 6 4 5 3 2 2 4 4 4 4 5 5 5 5 6 6 6 7 7 6 6 6 6 5 5 4 4 4 3 3
4 5 3 3 3 3 4 2 1 2 4 6 4 5 5 4 2 1 2 2 3 3 4 4 4 4 5 6 6 6 7 7 7 7 6 6 7 7 6 6 5 4 4 3
3 4 3 2 3 3 4 3 3 3 3 3 3 6 4 2 2 2 1 0 1 3 3 3 4 4 4 5 5 6 6 6 6 6 5 5 6 5 5 5 5 5 4 3
2 3 1 2 2 2 2 4 3 3 4 4 5 4 2 2 3 3 3 3 2 1 1 2 2 3 4 3 3 4 5 4 5 5 5 4 5 5 5 5 4 3 3 4
2 3 3 2 2 3 3 2 2 2 2 4 5 5 3 2 2 3 2 2 2 2 1 1 2 2 2 2 3 2 3 4 4 4 4 3 4 5 5 5 5 4 4 4
2 2 3 1 3 3 2 3 3 3 3 3 4 3 2 1 1 1 2 2 2 2 1 2 1 2 2 2 2 2 3 3 4 4 4 3 4 4 5 4 5 5 4 5
1 2 3 3 2 2 3 3 3 3 4 3 3 5 1 3 3 3 3 4 3 2 2 2 2 2 2 2 1 1 2 3 3 4 4 4 4 4 4 4 4 4 4 4
1 1 2 2 2 1 3 3 3 3 2 4 4 5 1 2 4 4 3 3 3 3 3 3 3 1 1 1 1 1 1 2 2 3 3 3 4 4 4 4 4 4 5 5
2 3 4 5 4 2 4 5 4 3 4 6 7 9 8 4 4 5 4 3 3 2 2 2 2 2 1 1 1 0 0 1 2 2 3 4 4 4 4 4 4 4 4 4
1 3 4 7 7 5 6 7 7 8 8 7 8 9 11 7 5 4 3 3 3 3 3 2 2 3 2 2 1 0 0 1 1 2 2 3 3 3 4 4 4 4 4 4
1 2 3 6 6 6 8 10 9 10 9 10 11 12 9 8 5 5 5 4 3 3 2 1 2 2 2 2 1 1 1 1 1 2 2 2 3 3 4 4 4 4 3 4
1 1 2 4 3 5 7 8 9 6 6 7 10 9 7 7 7 6 6 5 4 4 3 3 2 2 2 2 1 2 2 1 1 1 1 2 3 3 4 4 4 4 4 3
2 1 2 3 3 5 5 1 2 5 5 5 5 6 7 6 6 5 4 4 5 5 5 4 3 3 2 2 2 2 1 1 1 1 1 1 2 3 3 4 3 3 3 3
2 3 2 2 4 6 3 0 0 2 4 3 5 6 7 7 5 4 4 5 4 4 5 4 4 3 2 1 1 1 1 1 1 1 1 1 2 3 3 3 3 3 3 3
1 2 2 3 4 5 3 1 2 0 3 3 3 4 5 6 3 4 6 6 6 5 3 4 3 2 2 2 1 1 1 1 1 1 1 1 2 3 3 4 3 3 3 3
2 3 4 5 5 5 2 1 1 1 4 4 4 4 4 3 3 5 7 6 5 4 4 4 3 3 2 2 2 2 1 1 1 1 0 1 2 2 3 3 3 3 3 3
5 4 4 4 5 6 0 1 2 3 3 3 4 4 5 5 5 6 6 6 5 5 4 4 4 4 3 3 2 2 2 2 1 1 1 1 1 2 2 3 3 3 4 3
5 5 3 5 6 2 2 2 2 2 3 4 4 5 5 5 4 5 5 5 4 5 4 4 3 4 4 3 3 2 3 2 2 1 1 1 1 2 2 3 3 3 3 3
4 2 3 5 6 4 4 3 3 3 3 4 4 5 5 4 5 5 5 4 4 4 4 3 3 3 4 4 4 3 3 2 1 1 1 1 2 1 1 1 2 3 3 3
3 4 4 6 6 5 3 2 3 4 4 5 5 4 4 4 5 5 4 4 4 3 4 3 3 3 4 4 3 3 3 1 1 0 1 1 1 1 1 1 1 1 2 3
4 5 5 6 4 3 4 3 3 4 5 5 5 5 4 4 4 4 4 3 3 3 3 3 3 3 4 4 3 3 3 1 0 0 0 1 1 1 1 1 1 1 0 1
Wind_Direction
192 207 226 227 225 244 263 271 270 267 270 260 254 259 259 248 242 247 243 236 230 228 222 200 186 182 176 173 175 181 181 188 191 178 172 171 180 173 167 171 170 169 167 161
214 230 236 241 241 244 255 266 273 278 281 273 265 267 264 250 238 240 245 246 237 228 210 192 182 181 178 175 176 181 184 188 197 185 172 172 172 173 168 173 170 171 170 167
224 247 240 240 246 245 243 247 262 279 303 274 273 272 254 248 237 238 241 243 234 220 207 193 188 186 180 179 181 188 186 190 195 175 154 150 153 150 162 171 178 182 177 174
243 246 251 248 246 242 249 247 265 277 284 270 245 272 259 254 246 242 241 243 229 214 205 193 190 190 187 183 179 179 183 189 187 166 162 169 183 183 184 178 176 172 175 167
246 253 246 249 254 249 259 273 262 265 261 271 248 253 271 249 255 257 239 232 221 206 205 193 192 189 184 177 171 175 184 190 180 169 172 177 181 174 162 156 164 166 162 157
252 261 260 261 265 244 261 263 262 248 244 252 231 220 273 255 255 263 262 236 211 205 198 194 186 173 173 166 164 177 186 189 177 173 176 176 173 163 161 165 172 170 164 164
260 233 234 260 264 237 235 230 255 227 220 246 224 220 246 264 298 254 256 241 219 209 196 195 179 175 181 171 171 181 185 181 176 173 176 178 176 169 171 176 177 172 177 179
265 254 213 222 228 233 240 230 220 243 246 267 238 235 240 242 4 12 13 79 148 186 201 194 185 177 179 174 174 181 174 173 173 170 173 176 176 172 174 181 181 181 179 174
266 266 232 228 240 228 235 229 249 278 286 270 244 242 241 32 26 9 16 35 42 44 146 160 148 148 159 156 164 174 164 164 167 167 166 175 179 177 173 174 175 172 162 161
294 282 259 235 224 230 235 253 232 223 262 270 264 242 268 314 331 338 2 20 11 7 16 109 113 116 125 130 137 150 155 163 161 160 169 182 181 178 172 172 171 167 161 161
275 259 284 255 211 225 211 224 234 231 239 245 276 277 340 65 58 19 360 16 26 9 23 96 98 79 84 99 121 140 151 154 157 159 166 174 176 168 169 173 171 167 165 168
254 250 263 250 229 248 233 229 223 218 251 245 257 270 351 62 53 49 25 14 13 17 28 55 72 69 65 76 97 134 161 160 167 164 163 171 166 162 170 173 172 166 167 172
280 232 299 300 271 275 245 235 242 243 258 249 243 264 309 42 29 24 15 0 358 20 29 33 39 44 70 76 112 152 162 151 137 148 159 159 167 175 177 173 170 170 170 172
290 245 233 247 265 256 262 260 248 223 231 251 245 263 287 313 339 343 344 348 350 12 24 35 19 2 1 25 60 78 146 133 135 150 165 169 177 176 173 173 168 169 169 170
290 249 261 276 281 273 259 257 238 230 236 243 258 264 276 304 315 318 323 339 346 355 8 18 355 340 337 357 359 1 276 165 172 169 174 179 174 165 161 166 164 161 164 169
308 269 294 281 273 271 264 254 238 238 244 251 268 273 283 310 323 323 331 340 336 328 330 335 328 327 328 336 335 321 286 243 182 181 190 175 167 163 164 163 152 148 153 158
217 224 269 275 298 301 265 242 222 223 228 232 247 262 308 321 321 322 326 329 324 330 330 327 313 298 297 297 293 281 275 263 222 198 191 174 165 164 167 161 148 153 156 153
197 223 240 279 310 254 250 13 208 228 254 246 261 291 307 307 313 320 330 339 331 331 331 327 323 313 301 298 305 294 277 252 233 225 209 182 160 154 151 150 151 157 158 161
210 199 234 248 266 272 270 281 151 214 275 282 273 300 321 329 323 327 5 358 332 321 316 316 317 312 309 317 312 310 328 312 244 236 229 191 161 155 157 158 161 160 158 157
172 186 220 240 256 257 278 346 346 106 272 313 314 316 331 345 332 315 351 351 341 336 334 331 331 341 348 349 357 17 352 329 268 266 244 189 166 165 168 164 157 153 149 149
178 204 220 236 250 266 281 307 16 170 274 331 344 332 332 313 282 309 334 341 346 351 353 357 352 352 347 353 11 8 351 322 311 358 341 163 152 152 152 146 145 142 138 132
191 194 207 209 229 256 198 98 174 247 317 331 327 324 317 309 317 332 338 340 349 352 354 4 1 351 349 356 7 352 333 335 23 62 70 108 124 136 141 143 141 138 137 137
211 204 208 211 225 256 197 236 277 322 314 313 314 317 314 309 316 327 332 334 340 345 342 351 358 346 343 353 7 347 331 359 31 67 86 95 99 116 137 142 143 139 141 146
222 207 242 262 262 261 256 274 317 329 315 318 320 317 314 308 311 319 322 325 334 341 339 343 349 345 339 347 354 343 339 2 34 65 102 108 104 96 100 134 151 160 167 166
223 189 234 261 274 291 254 270 305 314 317 319 321 314 308 308 311 314 316 321 327 331 330 334 334 331 328 334 335 335 337 356 3 29 114 118 111 116 109 103 160 180 192 187
216 209 219 247 254 254 280 309 313 305 300 299 303 307 310 308 305 313 317 321 321 323 328 331 328 322 319 323 321 323 334 349 30 28 93 126 112 111 121 130 71 33 76 209
Height
1479 1482 1480 1478 1478 1477 1476 1475 1473 1467 1462 1463 1461 1458 1455 1454 1454 1454 1453 1454 1454 1455 1457 1459 1460 1463 1465 1467 1468 1470 1473 1475 1478 1479 1482 1485 1487 1490 1492 1494 1497 1499 1501 1503
1479 1478 1474 1474 1474 1475 1475 1476 1472 1465 1461 1461 1459 1455 1450 1449 1449 1449 1449 1449 1449 1450 1452 1454 1456 1458 1460 1462 1464 1466 1469 1471 1473 1476 1478 1481 1484 1486 1489 1491 1493 1496 1498 1500
1475 1472 1470 1472 1472 1473 1472 1473 1470 1468 1464 1460 1460 1456 1447 1443 1442 1443 1444 1443 1444 1446 1447 1449 1451 1454 1456 1458 1460 1462 1464 1467 1469 1472 1475 1478 1480 1482 1485 1487 1490 1492 1494 1496
1471 1469 1469 1469 1470 1471 1470 1466 1467 1467 1470 1467 1463 1464 1446 1441 1439 1439 1439 1439 1440 1441 1443 1445 1447 1449 1452 1454 1456 1459 1461 1463 1466 1468 1471 1473 1476 1478 1481 1484 1486 1488 1491 1492
1470 1467 1468 1468 1467 1467 1467 1465 1466 1466 1468 1469 1461 1464 1449 1439 1438 1435 1435 1436 1437 1438 1440 1442 1444 1446 1448 1450 1453 1455 1457 1459 1461 1464 1467 1470 1472 1474 1478 1481 1483 1485 1487 1489
1469 1467 1467 1466 1465 1465 1465 1466 1465 1465 1468 1469 1457 1459 1450 1439 1435 1433 1433 1433 1435 1436 1437 1440 1441 1442 1445 1447 1450 1451 1453 1455 1457 1460 1463 1466 1468 1471 1474 1477 1479 1481 1483 1486
1467 1465 1465 1465 1466 1465 1466 1469 1471 1469 1467 1461 1447 1450 1446 1435 1432 1432 1432 1432 1433 1433 1435 1437 1438 1439 1441 1443 1445 1448 1450 1451 1453 1456 1459 1462 1465 1467 1470 1473 1475 1477 1479 1481
1470 1467 1463 1463 1465 1466 1465 1466 1471 1468 1462 1454 1446 1447 1438 1432 1430 1430 1430 1431 1430 1431 1433 1434 1435 1437 1439 1441 1442 1444 1446 1447 1449 1452 1455 1458 1461 1464 1466 1469 1471 1473 1475 1477
1471 1467 1462 1461 1462 1463 1465 1465 1463 1465 1460 1458 1446 1437 1431 1430 1430 1430 1430 1430 1430 1431 1431 1433 1433 1435 1437 1438 1440 1441 1443 1445 1447 1449 1452 1454 1457 1460 1462 1465 1467 1469 1471 1473
1471 1472 1463 1461 1462 1462 1463 1463 1466 1465 1463 1457 1443 1437 1438 1433 1432 1431 1431 1430 1430 1431 1430 1431 1432 1434 1435 1436 1438 1439 1441 1442 1444 1446 1448 1451 1454 1456 1459 1461 1463 1465 1467 1469
1470 1473 1467 1463 1463 1464 1464 1464 1463 1462 1459 1460 1452 1444 1433 1433 1432 1432 1432 1431 1431 1431 1430 1430 1431 1432 1434 1434 1435 1436 1438 1440 1441 1443 1446 1448 1450 1452 1455 1457 1459 1461 1463 1465
1470 1470 1469 1464 1461 1461 1461 1462 1463 1466 1463 1457 1455 1448 1432 1432 1432 1431 1432 1431 1430 1430 1430 1430 1430 1431 1432 1432 1433 1434 1436 1437 1439 1440 1443 1445 1446 1449 1451 1453 1455 1457 1459 1461
1470 1471 1469 1464 1465 1464 1462 1461 1462 1462 1463 1460 1455 1447 1432 1432 1432 1432 1432 1431 1430 1430 1429 1429 1430 1431 1431 1432 1432 1433 1434 1435 1436 1438 1440 1441 1443 1445 1447 1449 1451 1453 1455 1457
1470 1470 1469 1465 1460 1462 1463 1461 1461 1462 1464 1459 1452 1445 1436 1434 1434 1433 1432 1432 1431 1430 1429 1429 1429 1430 1430 1430 1431 1431 1432 1432 1434 1435 1437 1438 1439 1441 1443 1446 1448 1450 1451 1453
1470 1470 1466 1463 1459 1459 1459 1458 1459 1460 1457 1457 1448 1444 1436 1435 1435 1434 1432 1431 1430 1429 1428 1428 1428 1428 1428 1428 1429 1430 1430 1430 1431 1432 1433 1434 1436 1438 1440 1442 1444 1446 1447 1449
1470 1470 1467 1463 1458 1457 1456 1453 1453 1453 1452 1451 1447 1442 1436 1435 1434 1433 1431 1430 1429 1428 1427 1427 1427 1427 1427 1426 1427 1427 1428 1428 1429 1429 1430 1431 1433 1435 1436 1438 1439 1441 1443 1445
1470 1471 1468 1462 1457 1455 1453 1448 1448 1448 1446 1446 1445 1441 1436 1435 1434 1432 1431 1430 1428 1427 1426 1426 1425 1425 1425 1424 1424 1425 1425 1425 1425 1426 1427 1428 1430 1431 1433 1434 1435 1437 1440 1442
1470 1470 1469 1465 1462 1459 1445 1442 1441 1443 1443 1442 1441 1438 1437 1435 1433 1431 1430 1429 1427 1426 1425 1424 1424 1423 1423 1422 1422 1422 1421 1421 1422 1423 1424 1425 1426 1428 1429 1431 1432 1435 1437 1439
1468 1469 1467 1465 1459 1449 1442 1442 1443 1444 1443 1440 1440 1438 1436 1434 1431 1429 1428 1428 1426 1425 1424 1423 1422 1421 1420 1420 1419 1419 1418 1418 1419 1420 1421 1422 1423 1424 1426 1428 1430 1432 1434 1436
1468 1469 1469 1463 1460 1452 1443 1443 1442 1444 1444 1439 1438 1437 1436 1434 1434 1430 1428 1426 1425 1423 1422 1421 1420 1419 1418 1418 1417 1416 1415 1416 1416 1417 1418 1419 1421 1422 1424 1425 1427 1429 1431 1432
1469 1468 1467 1463 1458 1450 1445 1443 1443 1448 1444 1439 1437 1437 1436 1435 1434 1431 1427 1425 1423 1422 1421 1419 1418 1417 1416 1416 1415 1414 1414 1414 1414 1415 1416 1417 1418 1420 1422 1423 1425 1426 1428 1429
1464 1464 1464 1461 1459 1453 1444 1443 1445 1444 1440 1438 1437 1436 1435 1433 1431 1428 1426 1423 1421 1420 1419 1418 1417 1416 1415 1415 1414 1413 1412 1412 1413 1413 1414 1415 1416 1418 1419 1421 1422 1424 1425 1426
1457 1456 1455 1454 1451 1444 1442 1441 1441 1440 1439 1437 1436 1434 1433 1431 1429 1427 1425 1423 1421 1420 1418 1417 1416 1415 1414 1413 1412 1411 1411 1411 1411 1412 1412 1413 1414 1415 1417 1418 1420 1421 1423 1424
1451 1450 1451 1449 1442 1440 1440 1439 1438 1438 1437 1436 1434 1433 1431 1429 1427 1425 1423 1421 1420 1419 1417 1416 1415 1413 1413 1412 1411 1411 1410 1410 1410 1410 1410 1411 1412 1413 1415 1416 1418 1419 1420 1422
1446 1448 1448 1446 1441 1439 1437 1437 1436 1435 1435 1433 1432 1431 1429 1427 1425 1424 1422 1420 1419 1417 1416 1415 1413 1412 1411 1411 1410 1410 1409 1408 1408 1408 1408 1409 1410 1411 1413 1414 1416 1417 1418 1419
1442 1444 1445 1441 1437 1438 1436 1435 1434 1433 1432 1431 1430 1428 1427 1425 1423 1422 1420 1419 1417 1416 1414 1413 1412 1411 1410 1409 1408 1408 1407 1407 1406 1406 1407 1407 1408 1409 1411 1412 1413 1415 1416 1417